Location: Obersdorf
(47.4079°N, 10.2781°E)
Time: 18:33:47
(UTC+02:00)

Nauka - Pass Details

Date: 02 October 2021
Orbit: 417 x 423 km, 51.6° (Epoch: 26 October)

Event Time Altitude Azimuth Distance (km) Brightness Sun altitude
Rises 19:29:24 0° 293° (WNW) 2,366 ? -6.4°
Reaches altitude 10° 19:31:30 10° 297° (WNW) 1,501 ? -6.8°
Maximum altitude 19:34:52 66° 20° (NNE) 463 ? -7.4°
Enters shadow 19:38:09 10° 103° (ESE) 1,479 ? -7.9°
